Regional Weather Roundup
Issued by NWS

Home | Current Version | Previous Version | Graphics & Text | Print | Product List | Glossary On
Versions: 1 2 3 4 5 6 7 8 9 10 11 12 13 14 15 16 17 18 19 20 21 22 23 24 25 26 27 28 29 30 31 32 33 34 35 36 37 38 39 40 41 42 43 44 45 46 47 48 49 50
000
ASUS43 KLOT 200612
RWRIL

ILLINOIS REGIONAL WEATHER ROUNDUP
NATIONAL WEATHER SERVICE CHICAGO/ROMEOVILLE IL
1200 AM CST FRI JAN 20 2017

NOTE: "FAIR" INDICATES FEW OR NO CLOUDS BELOW 12,000 FEET WITH NO
SIGNIFICANT WEATHER AND/OR OBSTRUCTIONS TO VISIBILITY.

* THESE STATIONS ARE NOT UNDER NWS QUALITY CONTROL. THEY ALSO MAY NOT
  REPORT WEATHER SUCH AS PRECIPITATION OR FOG.

ILZ001-002-007-009-015-016-024-200700-
NORTHWEST ILLINOIS

CITY           SKY/WX    TMP DP  RH WIND       PRES   REMARKS
MOLINE         CLOUDY    38  36  92 E7        29.63F FOG     WCI  33
6HR MIN TEMP:  37; 6HR MAX TEMP:  38; 6HR PCP:  0.08;

STERLING*      CLOUDY    36  36 100 E12       29.65F FOG     WCI  28
SAVANNA*       CLOUDY    37  37  98 E8        29.66F FOG     WCI  31
$$

ILZ003-004-008-010-011-017-018-200700-
NORTH CENTRAL ILLINOIS

CITY           SKY/WX    TMP DP  RH WIND       PRES   REMARKS
ROCKFORD       CLOUDY    38  36  92 NE8       29.69F FOG     WCI  32
6HR MIN TEMP:  38; 6HR MAX TEMP:  40; 6HR PCP:  0.10;

FREEPORT*      CLOUDY    35  35  99 NE9       29.69F FOG     WCI  28
ROCHELLE*      CLOUDY    36  36  99 NE8       29.67F FOG     WCI  29
DE KALB*       CLOUDY    37  37  99 NE6       29.67F FOG     WCI  32
$$

ILZ005-006-012>014-019>023-200700-
NORTHEAST ILLINOIS

CITY           SKY/WX    TMP DP  RH WIND       PRES   REMARKS
CHICAGO-OHARE  LGT RAIN  38  37  97 E8        29.68F FOG     WCI  32
6HR MIN TEMP:  37; 6HR MAX TEMP:  39; 6HR PCP:  0.41;

CHICAGO-MIDWAY LGT RAIN  38  36  92 E12G23    29.69F FOG     WCI  30
6HR MIN TEMP:  37; 6HR MAX TEMP:  39; 6HR PCP:  0.64;

AURORA         CLOUDY    39  38  96 NE6       29.68F FOG     WCI  35
6HR MIN TEMP:  38; 6HR MAX TEMP:  40; 6HR PCP:  0.14;

LANSING*       RAIN      38  38 100 E7        29.68F WCI  32
JOLIET*        DRIZZLE   40  40  98 E7        29.67F
WAUKEGAN       LGT RAIN  37  36  96 NE7       29.71F VSB 1   WCI  32
6HR MIN TEMP:  36; 6HR MAX TEMP:  37; 6HR PCP:  0.28;

DUPAGE AIRPORT LGT RAIN  39  37  92 NE8       29.67F FOG     WCI  33
6HR MIN TEMP:  38; 6HR MAX TEMP:  39; 6HR PCP:  0.19;

KANKAKEE*      RAIN      40  39  98 E14       29.65F
WHEELING       LGT RAIN  37  36  96 NE8       29.71F FOG     WCI  31
6HR MIN TEMP:  37; 6HR MAX TEMP:  38; 6HR PCP:  0.29;

MORRIS*        CLOUDY    38  38  97 NE3       29.67F FOG
ROMEOVILLE*    LGT RAIN  38  38 100 E8        29.67F WCI  32
NORTHERLY ISL    N/A     35  34  96 NE8         N/A  WCI  29
$$

LMZ740>746-200700-
SOUTHERN LAKE MICHIGAN

STATION/POSITION SKY/WX   TEMP    WIND        PRES    VSBY  WAVE
                          AIR SEA DIR/SP/G                  HT/PER
                          (F)     (DEG/KT/KT) (MB)    (MI)  (FT/S)
HARRISON CRIB              38      70/ 15/ 17   N/A
BURNHAM HARBOR             35      50/  7/  9   N/A
CALUMET HARBOR                     50/  9/ 14 1005.3F
BURNS HARBOR               35      70/  7/  9 1006.8F
MICHIGAN CITY              38      40/  9/  9   N/A
$$

ILZ025>027-034>036-040-047-049-050-058-095>099-200700-
WEST-CENTRAL ILLINOIS

CITY           SKY/WX    TMP DP  RH WIND       PRES   REMARKS
QUINCY         FOG       42  42 100 SE7       29.62F VSB 1/4
GALESBURG*     CLOUDY    38  38 100 E5        29.63F FOG     WCI  34
MACOMB*        FOG       39  39 100 SE7       29.67S VSB 1   WCI  34
JACKSONVILLE*  FOG       42  42 100 CALM      29.63F VSB 1/2
PITTSFIELD*    FOG       43  43 100 CALM      29.63F VSB 1/4
$$

ILZ028>032-037-038-041>044-048-051>054-059>061-200700-
CENTRAL ILLINOIS

CITY           SKY/WX    TMP DP  RH WIND       PRES   REMARKS
PONTIAC        CLOUDY    40  40 100 E10       29.65F FOG
BLOOMINGTON    FOG       39  39 100 NE7       29.62F VSB 1/2 WCI  34
DECATUR        CLOUDY    43  33  68 E3        29.62F HAZE
PEORIA         CLOUDY    40  39  97 NE6       29.63F FOG
6HR MIN TEMP:  40; 6HR MAX TEMP:  41; 6HR PCP:  0.03;

LACON*         CLOUDY    38  38 100 NE3       29.65F FOG
LINCOLN*       CLOUDY    43  43 100 CALM      29.63S FOG
SPRINGFIELD    FOG       44  42  93 CALM      29.64F VSB 1/2
6HR MIN TEMP:  43; 6HR MAX TEMP:  45; 6HR PCP:  0.01;

TAYLORVILLE    RAIN      43  43 100 E6        29.61F
6HR MIN TEMP:  42; 6HR MAX TEMP:  43; 6HR PCP:  0.23;

$$

ILZ033-039-045-046-055>057-062-063-200700-
EAST-CENTRAL ILLINOIS

CITY           SKY/WX    TMP DP  RH WIND       PRES   REMARKS
CHAMPAIGN      LGT RAIN  44  42  93 E9        29.62F FOG
RANTOUL*       CLOUDY    43  43  99 E8        29.62F FOG
MATTOON        HVY RAIN  45  45 100 CALM      29.59F FOG
PARIS*         RAIN      45  45 100 E6        29.62F
$$

ILZ079-100>102-200700-
SOUTHWEST ILLINOIS

CITY           SKY/WX    TMP DP  RH WIND       PRES   REMARKS
ALTON          RAIN      44  44 100 NE6       29.60F
BELLEVILLE     CLOUDY    46  46 100 CALM      29.59S
CAHOKIA*       CLOUDY    47  45  93 W6        29.61F
SPARTA*        DRIZZLE   47  47  99 CALM      29.62F
$$

ILZ064>066-069>071-074>076-080>082-084>086-088>090-092>094-200700-
SOUTH-CENTRAL ILLINOIS

CITY           SKY/WX    TMP DP  RH WIND       PRES   REMARKS
CARBONDALE     LGT RAIN  49  49 100 CALM      29.63S FOG
6HR MIN TEMP:  49; 6HR MAX TEMP:  52; 6HR PCP:  0.14;

CAIRO*         CLOUDY    55  54  96 SW9G16    29.65F
EFFINGHAM*     RAIN      47  47 100 W5        29.63F
MARION         CLOUDY    57  57 100 SW10      29.64S
MT. VERNON     RAIN      49  49 100 CALM      29.63F FOG
CENTRALIA*     LGT RAIN  47  47 100 SE5       29.62F
SALEM*         LGT RAIN  48  46  95 W5        29.62F
METROPOLIS*    CLOUDY    57  55  94 CALM      29.65F
$$

ILZ067-068-072-073-078-083-087-091-200700-
SOUTHEAST ILLINOIS

CITY           SKY/WX    TMP DP  RH WIND       PRES   REMARKS
LAWRENCEVILLE  RAIN      51  51 100 S7        29.62F FOG
FLORA*         RAIN      51  50  97 W8        29.62S
FAIRFIELD*     RAIN      55  55 100 SW5       29.61F
HARRISBURG*    LGT RAIN  57  56  98 SW6       29.63F
ROBINSON*      RAIN      48  48 100 SE6       29.63F
CARMI*         DRIZZLE   54  54 100 S7        29.62F
$$

ABBREVIATIONS USED IN REMARKS
   TC - TEMPERATURE IN CELSIUS
  WCI - WIND CHILL INDEX
   HX - HEAT INDEX
  VSB - VISIBILITY
$$





USA.gov is the U.S. government's official web portal to all federal, state and local government web resources and services.